McCook, NE

5:56 AM CST on December 06, 2016 (GMT -0600)
McCook Municipal

Weather History for KMCK - May, 2013

Change the Weather History Date:

Saturday, May 18, 2013

  Actual Average Record
Temperature  
Mean Temperature 71 °F 60 °F  
Max Temperature 83 °F 74 °F 99 °F (1996)
Min Temperature 58 °F 47 °F 31 °F (1910)
Cooling Degree Days 7    
Growing Degree Days 22 (Base 50)    
Moisture  
Dew Point 61 °F    
Average Humidity 70    
Maximum Humidity 90    
Minimum Humidity 47    
Precipitation  
Precipitation 0.00 in 0.10 in 2.71 in (1962)
Month to date precipitation 0.32 1.72  
Year to date precipitation 3.89 6.52  
Sea Level Pressure  
Sea Level Pressure 29.71 in    
Wind  
Wind Speed 12 mph (ESE)    
Max Wind Speed 22 mph    
Max Gust Speed 28 mph    
Visibility 7 miles    
Events Thunderstorm    
T = Trace of Precipitation, MM = Missing Value Source: NWS Daily Summary

Daily Weather History Graph

Daily Weather History Graph

Search for Another Location

Airport or City:

Trip Planner

Search our weather history database for the weather conditions in past years. The results will help you decide how hot, cold, wet, or windy it might be!

Date:

Astronomy

May. 18, 2013 Rise Set
Actual Time 6:23 AM CDT 8:54 PM CDT
Civil Twilight 5:52 AM CDT 9:25 PM CDT
Nautical Twilight 5:14 AM CDT 10:04 PM CDT
Astronomical Twilight 4:30 AM CDT 10:47 PM CDT
Moon 1:59 PM CDT (5/18) 2:17 AM CDT (5/18)
Length of Visible Light 15h 33m
Length of Day
14h 30m
First Quarter, 55% of the Moon is Illuminated
May 18
First Quarter
May 24
Full
May 31
Last Quarter
Jun 8
New
Jun 16
First Quarter

Hourly Weather History & Observations

Time (CDT) Temp. Heat Index Dew Point Humidity Pressure Visibility Wind Dir Wind Speed Gust Speed Precip Events Conditions
12:35 AM 66.2 °F - 60.8 °F 83% 29.83 in 9.0 mi SE 6.9 mph - N/A   Mostly Cloudy
12:53 AM 66.9 °F - 62.1 °F 84% 29.76 in 8.0 mi SSE 9.2 mph - N/A   Mostly Cloudy
1:53 AM 68.0 °F - 63.0 °F 84% 29.75 in 7.0 mi SSE 10.4 mph - N/A   Overcast
2:07 AM 68.0 °F - 62.6 °F 83% 29.81 in 7.0 mi SSE 12.7 mph 17.3 mph N/A   Overcast
2:19 AM 68.0 °F - 62.6 °F 83% 29.81 in 7.0 mi SSE 11.5 mph - N/A   Overcast
2:53 AM 69.1 °F - 62.1 °F 78% 29.72 in 7.0 mi SSE 17.3 mph 23.0 mph N/A   Overcast
3:53 AM 69.1 °F - 61.0 °F 75% 29.70 in 8.0 mi SSE 12.7 mph 21.9 mph N/A   Mostly Cloudy
4:09 AM 68.0 °F - 60.8 °F 78% 29.77 in 8.0 mi SSE 16.1 mph - N/A   Scattered Clouds
4:53 AM 66.9 °F - 61.0 °F 81% 29.69 in 7.0 mi SSE 9.2 mph - N/A   Overcast
5:29 AM 66.2 °F - 60.8 °F 83% 29.77 in 7.0 mi SE 9.2 mph - N/A   Overcast
5:53 AM 66.9 °F - 61.0 °F 81% 29.69 in 7.0 mi SE 10.4 mph - N/A   Overcast
6:53 AM 66.0 °F - 62.1 °F 87% 29.70 in 5.0 mi SE 11.5 mph - N/A   Overcast
7:53 AM 66.9 °F - 64.0 °F 90% 29.72 in 4.0 mi East 9.2 mph - N/A   Overcast
8:15 AM 68.0 °F - 64.4 °F 88% 29.80 in 4.0 mi ENE 8.1 mph - N/A   Overcast
8:45 AM 69.8 °F - 64.4 °F 83% 29.80 in 4.0 mi ESE 13.8 mph - N/A   Overcast
8:53 AM 69.1 °F - 64.9 °F 87% 29.73 in 4.0 mi ESE 13.8 mph - N/A   Overcast
9:53 AM 73.9 °F - 64.9 °F 73% 29.70 in 5.0 mi SE 12.7 mph - N/A   Haze
10:09 AM 75.2 °F - 64.4 °F 69% 29.76 in 5.0 mi SE 17.3 mph - N/A   Haze
10:53 AM 79.0 °F - 64.9 °F 62% 29.69 in 6.0 mi SE 11.5 mph 20.7 mph N/A   Haze
11:08 AM 78.8 °F - 64.4 °F 61% 29.76 in 6.0 mi SE 12.7 mph - N/A   Haze
11:15 AM 77.0 °F - 64.4 °F 65% 29.76 in 6.0 mi SE 11.5 mph 19.6 mph N/A   Haze
11:45 AM 78.8 °F - 64.4 °F 61% 29.77 in 6.0 mi SE 11.5 mph - N/A   Haze
11:53 AM 77.0 °F - 64.0 °F 64% 29.70 in 6.0 mi SE 11.5 mph - N/A   Haze
12:26 PM 78.8 °F - 64.4 °F 61% 29.77 in 6.0 mi SSE 8.1 mph 19.6 mph N/A   Haze
12:40 PM 78.8 °F - 62.6 °F 57% 29.77 in 6.0 mi SE 8.1 mph - N/A   Haze
12:53 PM 79.0 °F - 63.0 °F 58% 29.70 in 7.0 mi SE 10.4 mph - N/A   Scattered Clouds
1:53 PM 78.8 °F - 64.4 °F 61% 29.76 in 6.0 mi ESE 12.7 mph 19.6 mph N/A   Haze
2:53 PM 80.1 °F 81.5 °F 63.0 °F 56% 29.62 in 7.0 mi ESE 21.9 mph 27.6 mph N/A   Clear
3:53 PM 80.1 °F 81.9 °F 64.9 °F 60% 29.62 in 7.0 mi ESE 16.1 mph - N/A   Clear
4:53 PM 80.6 °F 82.3 °F 64.4 °F 58% 29.66 in 7.0 mi ESE 16.1 mph 25.3 mph N/A   Clear
5:53 PM 78.1 °F - 64.0 °F 62% 29.59 in 6.0 mi East 17.3 mph - N/A   Haze
6:03 PM 77.0 °F - 64.4 °F 65% 29.66 in 7.0 mi East 17.3 mph - N/A Thunderstorm Partly Cloudy
6:53 PM 73.9 °F - 55.9 °F 53% 29.60 in 10.0 mi ESE 16.1 mph 26.5 mph N/A   Clear
7:53 PM 68.0 °F - 51.1 °F 55% 29.57 in 10.0 mi ENE 13.8 mph 23.0 mph N/A   Clear
8:53 PM 69.1 °F - 48.0 °F 47% 29.55 in 10.0 mi East 10.4 mph - N/A   Clear
9:53 PM 66.9 °F - 52.0 °F 59% 29.62 in 10.0 mi NE 9.2 mph - N/A   Mostly Cloudy
10:53 PM 64.4 °F - 48.2 °F 56% 29.71 in 10.0 mi NNE 13.8 mph - N/A Thunderstorm Overcast
11:02 PM 64.4 °F - 48.2 °F 56% 29.73 in 10.0 mi NNE 13.8 mph - N/A   Overcast
11:53 PM 61.0 °F - 50.0 °F 67% 29.66 in 10.0 mi NNE 12.7 mph - N/A   Partly Cloudy